www.pogodaiklimat.ru

Погода и климат >> Архив погоды >> Австралия >> Западная Австралия >> Евкла


ПОГОДА в Евкле

  • Прогноз погоды в Евкле
  • Монитор погоды в Евкле

АРХИВ ПОГОДЫ в Евкле

Время (UTC), дата Ветер
(напр.,м/с)
 
Видим.   Явления Облачность Т
(С)
Тd
(С)
f
(%)
Тe
(С)
Тes
(С)
Комфортность P
(гПа)
Po
(гПа)
Тmin
(С)
Tmax
(С)
R
(мм)
R24
(мм)
S
(см)
10 17.01 Ю 6 н/о н/о +20.5 +16.5 78 +24 +24 комфорт 1009.2 998.4
12 17.01 Ю 7 н/о н/о +19.7 +16.0 79 +21 +21 комфорт 1010.4 999.6
13 17.01 ЮВ 6 н/о н/о +19.6 +16.1 80 +21 +21 комфорт 1011.7 1000.9 +25.0
15 17.01 Ю 6 н/о н/о +19.2 +15.7 80 +20 +20 1011.8 1001.0
16 17.01 Ю 4 н/о н/о +19.3 +15.4 78 +21 +21 комфорт 1013.2 1002.3
18 17.01 ЮВ 6 н/о н/о +18.9 +15.4 80 +20 +20 1011.5 1000.7
19 17.01 Ю 6 н/о н/о +18.6 +15.7 83 +19 +19 1011.7 1000.9
21 17.01 ЮВ 5 н/о н/о +19.0 +15.3 79 +20 +20 1013.6 1002.7
22 17.01 ЮВ 5 н/о н/о +19.6 +15.0 75 +21 +21 комфорт 1014.5 1003.6
00 18.01 ЮВ 6 н/о н/о +21.8 +15.6 68 +25 +25 комфорт 1016.1 1005.2
01 18.01 ЮВ 6 40 км {гроза} 6/3 100 м
[St Ac trans]
+22.5 +15.1 63 +26 +30 жарко 1016.2 1005.3 +18.6
03 18.01 ЮВ 7 н/о н/о +23.3 +14.3 57 +27 +27 душно 1017.1 1006.2
04 18.01 ЮВ 7 н/о н/о +23.6 +14.3 56 +26 +26 жарко 1017.3 1006.4
06 18.01 ЮВ 7 н/о н/о +22.0 +14.4 62 +25 +25 комфорт 1017.4 1006.5
07 18.01 Ю 6 40 км 8/8 50 м
[Cu med, cong Ci]
+21.4 +14.6 65 +24 +25 комфорт 1017.8 1006.9
09 18.01 ЮВ 7 н/о н/о +20.5 +14.6 69 +23 +23 комфорт 1018.1 1007.2
10 18.01 ЮВ 7 н/о н/о +19.8 +14.6 72 +21 +21 комфорт 1018.8 1007.9
12 18.01 ЮВ 5 н/о н/о +19.2 +14.7 75 +20 +20 1019.9 1009.0
13 18.01 ЮВ 5 н/о н/о +19.4 +15.3 77 +21 +21 комфорт 1020.9 1010.0 +24.7
15 18.01 ЮВ 5 н/о н/о +19.4 +15.1 76 +21 +21 комфорт 1020.4 1009.5
16 18.01 ЮВ 5 н/о н/о +19.5 +15.6 78 +21 +21 комфорт 1020.3 1009.4
18 18.01 ЮВ 5 н/о н/о +19.4 +15.7 79 +21 +21 комфорт 1020.2 1009.3
19 18.01 В 4 н/о н/о +19.4 +15.7 79 +21 +21 комфорт 1020.4 1009.5
21 18.01 В 5 н/о н/о +19.5 +16.0 80 +21 +21 комфорт 1021.4 1010.5
22 18.01 В 5 н/о н/о +20.1 +15.7 76 +23 +23 комфорт 1022.4 1011.4
00 19.01 В 6 н/о н/о +21.5 +15.8 70 +25 +25 комфорт 1022.8 1011.8
01 19.01 В 6 40 км 6/4 50 м
[St Ac trans Ci]
+21.6 +15.9 70 +25 +28 комфорт 1022.5 1011.5 +19.1
03 19.01 ЮВ 6 н/о н/о +23.2 +16.0 64 +28 +28 душно 1022.1 1011.1
04 19.01 ЮВ 5 н/о н/о +22.6 +14.7 61 +26 +26 жарко 1021.6 1010.7
06 19.01 В 6 н/о н/о +22.4 +15.3 64 +26 +26 жарко 1021.3 1010.4
07 19.01 ЮВ 6 20 км мгла 9/4 50 м
[Cu med, cong As trans]
+21.2 +15.3 69 +24 +25 комфорт 1021.0 1010.1
09 19.01 ЮВ 5 н/о н/о +20.1 +15.5 75 +22 +22 комфорт 1020.6 1009.7
10 19.01 В 5 н/о н/о +19.8 +15.7 77 +22 +22 комфорт 1020.8 1009.9
12 19.01 В 5 н/о н/о +19.5 +16.0 80 +21 +21 комфорт 1021.0 1010.1
13 19.01 В 5 н/о н/о +19.5 +16.2 81 +21 +21 комфорт 1020.7 1009.8 +24.4
15 19.01 В 5 н/о н/о +19.3 +16.2 82 +21 +21 комфорт 1019.8 1008.9
16 19.01 В 3 н/о н/о +19.3 +16.2 82 +21 +21 комфорт 1020.5 1009.6
18 19.01 В 3 н/о н/о +18.3 +15.9 86 +19 +19 1019.4 1008.5
19 19.01 В 2 н/о н/о +17.8 +15.8 88 +18 +18 1019.4 1008.5
21 19.01 В 3 н/о н/о +17.9 +16.4 91 +18 +18 1019.8 1008.9
22 19.01 СВ 2 н/о н/о +19.4 +17.2 87 +22 +22 комфорт 1020.7 1009.8
00 20.01 СВ 4 н/о н/о +22.0 +15.8 68 +26 +26 душно 1021.4 1010.5
01 20.01 В 4 25 км мгла 10/4 1000 м
[Cu hum As trans]
+23.6 +14.0 55 +26 +29 жарко 1020.4 1009.5 +17.5
03 20.01 ЮВ 5 н/о н/о +23.6 +16.9 66 +27 +27 жарко 1019.3 1008.4
04 20.01 ЮВ 6 н/о н/о +26.2 +17.0 57 +30 +30 душно 1019.1 1008.2
06 20.01 В 5 н/о н/о +23.2 +16.3 65 +28 +28 душно 1017.4 1006.5
07 20.01 В 7 15 км мгла 9/9 50 м
[St Ac As Ci]
+22.5 +17.6 74 +28 +28 душно 1016.6 1005.7
09 20.01 В 6 н/о н/о +21.0 +17.2 79 +25 +25 комфорт 1016.6 1005.7
10 20.01 В 5 н/о н/о +20.5 +17.5 83 +24 +24 комфорт 1016.6 1005.7
12 20.01 В 5 н/о н/о +20.4 +15.2 72 +23 +23 комфорт 1017.0 1006.1
13 20.01 В 4 н/о н/о +20.3 +13.5 65 +23 +23 комфорт 1017.2 1006.3 +27.8
15 20.01 Ю 1 н/о н/о +18.2 +13.7 75 +20 +20 1016.5 1005.6
16 20.01 ЮВ 3 н/о н/о +19.1 +16.7 86 +21 +21 комфорт 1015.8 1004.9
18 20.01 СВ 5 н/о н/о +19.0 +16.4 85 +20 +20 1014.7 1003.8
19 20.01 СВ 1 н/о н/о +18.2 +16.0 87 +20 +20 1014.8 1003.9
21 20.01 СВ 1 н/о н/о +17.2 +15.5 90 +18 +18 1014.9 1004.0
22 20.01 СВ 3 н/о н/о +20.1 +16.5 80 +23 +23 комфорт 1014.8 1003.9
00 21.01 ЮВ 3 н/о н/о +25.8 +16.4 56 +29 +29 душно 1014.5 1003.6
01 21.01 Ю 4 40 км ясно +26.3 +15.4 51 +29 +40 жарко 1014.2 1003.3 +17.2
03 21.01 ЮВ 5 н/о н/о +26.7 +16.0 52 +30 +30 душно 1013.2 1002.3
04 21.01 ЮВ 6 н/о н/о +27.1 +16.4 52 +31 +31 душно 1012.3 1001.5
06 21.01 ЮВ 7 н/о н/о +26.5 +16.7 55 +30 +30 душно 1010.9 1000.1
07 21.01 ЮВ 6 20 км мгла 1/1 600 м
[Cu hum]
+25.5 +16.6 58 +29 +32 душно 1010.5 999.7
09 21.01 В 6 н/о н/о +24.2 +15.1 57 +27 +27 жарко 1010.3 999.5
10 21.01 В 6 н/о н/о +23.6 +13.5 53 +26 +26 жарко 1010.4 999.6
12 21.01 В 6 н/о н/о +22.3 +13.9 59 +25 +25 комфорт 1010.9 1000.1
13 21.01 В 5 н/о н/о +22.6 +10.1 45 +24 +24 комфорт 1011.1 1000.3 +28.2
15 21.01 СВ 3 н/о н/о +20.7 +10.2 51 +23 +23 комфорт 1010.6 999.8
16 21.01 СВ 4 н/о н/о +20.9 +11.0 53 +23 +23 комфорт 1009.9 999.1
18 21.01 СВ 4 н/о н/о +20.3 +13.3 64 +23 +23 комфорт 1008.7 997.9
19 21.01 СВ 3 н/о н/о +18.8 +13.4 71 +20 +20 1008.5 997.7
21 21.01 С 3 н/о н/о +19.0 +13.6 71 +20 +20 1008.4 997.6
22 21.01 СВ 3 н/о н/о +23.0 +14.0 57 +26 +26 жарко 1009.0 998.2
00 22.01 СВ 5 н/о н/о +31.5 +16.6 41 +35 +35 очень
душно
1008.6 997.8
01 22.01 ЮВ 3 40 км 1/1 1000 м
[Cu hum]
+31.3 +16.1 40 +34 +46 душно 1008.0 997.2 +18.1
03 22.01 В 6 н/о н/о +32.4 +15.0 35 +34 +34 очень
жарко
1006.7 995.9
04 22.01 ЮВ 6 н/о н/о +33.5 +14.0 31 +35 +35 душно 1006.1 995.3
06 22.01 В 7 н/о н/о +31.8 +14.9 36 +34 +34 душно 1005.1 994.3
07 22.01 В 9 40 км 1/1 600 м
[Cu med, cong]
+32.1 +14.3 34 +34 +35 душно 1004.5 993.7
09 22.01 В 8 н/о н/о +31.2 +13.9 35 +33 +33 жарко 1004.0 993.2
10 22.01 В 8 н/о н/о +29.2 +13.8 39 +31 +31 жарко 1004.2 993.4
12 22.01 В 8 н/о н/о +28.4 +13.9 41 +30 +30 жарко 1005.1 994.3
13 22.01 В 6 н/о н/о +26.8 +14.5 47 +29 +29 жарко 1005.1 994.3 +34.2
15 22.01 В 7 н/о н/о +27.9 +13.8 42 +30 +30 жарко 1004.2 993.4
16 22.01 В 4 н/о н/о +26.9 +14.0 45 +29 +29 жарко 1003.7 992.9
18 22.01 В 4 н/о н/о +23.6 +16.1 63 +27 +27 жарко 1002.8 992.1
19 22.01 СВ 4 н/о н/о +25.3 +14.7 52 +28 +28 жарко 1002.7 992.0
21 22.01 СВ 6 н/о н/о +28.7 +10.4 32 +29 +29 жарко 1002.5 991.8
22 22.01 С 7 н/о н/о +31.0 +9.3 26 +30 +30 жарко 1002.9 992.2
00 23.01 С 7 н/о н/о +36.3 +8.2 18 +34 +34 очень
жарко
1002.9 992.2
01 23.01 С 7 40 км 3/0
[Ac trans Ci]
+39.8 +10.2 17 +38 +42 очень
жарко
1002.6 991.9 +23.0
03 23.01 С 9 н/о н/о +46.3 +7.3 10 +44 +44 опасность
перегрева
1001.3 990.6
04 23.01 С 9 н/о н/о +46.9 +6.2 9 +44 +44 опасность
перегрева
1000.4 989.7
06 23.01 С 8 н/о н/о +47.6 +5.0 8 +45 +45 опасность
перегрева
999.0 988.3
07 23.01 С 8 40 км 3/3 600 м
[Cu med, cong Ac und Ci fib]
+47.8 +5.2 8 +45 +46 опасность
перегрева
998.5 987.8
09 23.01 С 7 н/о н/о +45.4 +5.1 9 +43 +43 опасность
перегрева
998.0 987.3
10 23.01 С 7 н/о н/о +43.8 +6.8 11 +41 +41 опасность
перегрева
998.0 987.3
12 23.01 С 6 н/о н/о +40.0 +8.5 15 +38 +38 очень
жарко
998.3 987.6
13 23.01 С 4 н/о н/о +38.2 +8.9 17 +36 +36 очень
жарко
999.0 988.3 +48.7
15 23.01 Ю 4 н/о н/о +28.0 +17.8 54 +32 +32 душно 1000.8 990.1
16 23.01 ЮЗ 4 н/о н/о +28.6 +16.5 48 +32 +32 душно 1001.1 990.4
18 23.01 СЗ 5 н/о н/о +29.3 +16.5 46 +33 +33 душно 1002.3 991.6
19 23.01 З 4 н/о н/о +30.4 +15.7 41 +33 +33 душно 1001.3 990.6
21 23.01 В 3 н/о н/о +27.2 +17.4 55 +31 +31 душно 1002.0 991.3
22 23.01 штиль 0 н/о н/о +28.7 +17.6 51 +33 +33 очень
душно
1002.8 992.1
00 24.01 С 3 н/о н/о +33.9 +16.3 35 +37 +37 очень
душно
1004.1 993.3
01 24.01 З 6 40 км слаб. морось 9/5 600 м
[Cu med, cong Ac inh]
+32.9 +17.1 39 +36 +38 очень
душно
1005.2 994.4 +27.0
03 24.01 ЮЗ 8 н/о н/о +25.7 +14.2 49 +28 +28 жарко 1006.5 995.7
04 24.01 ЮЗ 8 н/о н/о +27.1 +13.8 44 +29 +29 жарко 1006.3 995.5
06 24.01 ЮЗ 6 н/о н/о +23.7 +14.9 58 +27 +27 жарко 1006.7 995.9
07 24.01 Ю 5 25 км слаб. морось 8/3 600 м
[Cu med, cong Ac inh]
+23.2 +15.0 60 +27 +29 душно 1006.9 996.1
09 24.01 Ю 5 н/о н/о +22.6 +16.9 70 +27 +27 душно 1007.6 996.8
10 24.01 Ю 6 н/о н/о +21.4 +15.5 69 +25 +25 комфорт 1008.6 997.8

 

Местоположение метеостанции Евкла (Западная Австралия, Австралия): широта -31.68 долгота 128.88 высота над уровнем моря 102 м.

В архиве по умолчанию представлена погода в Евкле за последнюю неделю. Архивные данные за месяц целиком и за предыдущие месяцы, начиная с января 2011 года, Вы можете получить, выбрав интересующий диапазон дат из раскрывающегося списка и нажав кнопку "Ввод!".


*Определитесь, кто Вы:
робот инопланетянин человек

Внимание! Время в таблицах - всемирное. Для получения местного времени необходимо прибавить поправку, которая равна 8 ч.

Смотрите также архив погоды в соседних городах и на ближайших метеорологических станциях:

Погода в Форресте (Западная Австралия, Австралия) (120 км)
Погода в Ред Рокс Пойнт (Западная Австралия, Австралия) (140 км)
Погода в Наллаборе (Южная Австралия, Австралия) (193 км)
Погода в Сидуне (Южная Австралия, Австралия) (458 км)
Погода в Таркуле (Южная Австралия, Австралия) (553 км)
Погода в Миннипа Пирса (Южная Австралия, Австралия) (604 км)
Погода в Кубер-Педи (Южная Австралия, Австралия) (632 км)
Погода в Уудинне (Южная Австралия, Австралия) (636 км)
Погода в Уорбертоне (Западная Австралия, Австралия) (657 км)
Погода в Колте (Южная Австралия, Австралия) (675 км)

Пояснения к столбцам:

Ветер - указаны скорость ветра в м/с - средняя за 10 мин, порывы в срок и между сроками (в фигурных скобках) и направление, откуда дует ветер: С - северный, СВ - северо-восточный, В - восточный, ЮВ - юго-восточный, Ю - южный, ЮЗ - юго-западный, З - западный, СЗ - северо-западный.
Видимость - горизонтальная дальность видимости в метрах или километрах. При видимости от 1 до 10 км при отсутствии осадков обычно наблюдается дымка, при ухудшении видимости до 1 км и менее - туман. В сухую погоду видимость может ухудшаться дымом, пылью или мглою.
Явления - указаны атмосферные явления, наблюдавшиеся в срок или в последний час перед сроком; фигурными скобками обозначены явления, наблюдавшиеся между сроками (за 1-3 часа до срока); квадратными скобками обозначены град или гололедные отложения с указанием их диаметра в мм.
Облачность - указаны через наклонную черту общая и нижняя облачность в баллах и высота нижней границы облаков в метрах; квадратными скобками обозначены формы облаков: Ci - перистые, Cs - перисто-слоистые, Cc - перисто-кучевые, Ac - высококучевые, As - высокослоистые, Sc - слоисто-кучевые, Ns - слоисто-дождевые, Cu - кучевые, Cb - кучево-дождевые. Подробнее классификацию облаков см. в Атласе облаков (PDF).
T - Температура воздуха - температура, измеренная на высоте 2 м над землей.
Td - Температура точки росы - температура, при понижении до которой содержащийся в воздухе водяной пар достигнет насыщения.
f - Относительная влажность воздуха - влажноcть воздуха, измеренная на высоте 2 м над землей.
Te - Эффективная температура - температура, которую ощущает одетый по сезону человек в тени. Характеристика душности погоды. При расчете учитывается влияние влажности воздуха и скорости ветра на теплоощущения человека.
Tes - Эффективная температура на солнце - температура, которую ощущает человек, с поправкой на солнечный нагрев. Характеристика знойности погоды. Зависит от высоты солнца над горизонтом, облачности и скорости ветра. Ночью, в пасмурную погоду, а также при ветре 12 м/с и более поправка равна нулю.
P - Атмосферное давление - приведенное к уровню моря атмосферное давление.
Po - Атмосферное давление - измеренное на уровне метеостанции атмосферное давление.
Tmin - Минимальная температура - минимум температуры воздуха на высоте 2 м над землей.
Tmax - Максимальная температура - максимум температуры воздуха на высоте 2 м над землей.
R - Количество осадков - Количество выпавших осадков за период времени, мм. При наведении курсора мыши на число - период времени, за который выпало указанное количество осадков.
R24 - Количество осадков - Количество выпавших осадков за 24 часа, мм.
S - Снежный покров - Высота снежного покрова, см. При наведении курсора мыши на число - состояние снежного покрова и степень покрытия местности в баллах.